Change the Weather History Date:

Wednesday, January 23, 2013

  Actual Average Record
Temperature  
Mean Temperature 34 °F 36 °F  
Max Temperature 46 °F 43 °F 62 °F (1953)
Min Temperature 21 °F 30 °F -13 °F (1930)
Degree Days  
Heating Degree Days 31 28  
Month to date heating degree days 773 687  
Since 1 July heating degree days 2575 2895  
Cooling Degree Days 0 0  
Month to date cooling degree days 0 0  
Year to date cooling degree days 0 0  
Moisture  
Dew Point 24 °F    
Average Humidity 63    
Maximum Humidity 92    
Minimum Humidity 34    
Precipitation  
Precipitation T in 0.03 in 0.78 in (1981)
Month to date precipitation 0.19 0.82  
Year to date precipitation 0.19 0.82  
Snow  
Snow 0.00 in 0.10 in 5.90 in (1957)
Month to date snowfall 2.3 1.9  
Since 1 July snowfall 2.6 7.2  
Snow Depth 0.00 in    
Sea Level Pressure  
Sea Level Pressure 30.07 in    
Wind  
Wind Speed 7 mph (SE)    
Max Wind Speed 22 mph    
Max Gust Speed 28 mph    
Visibility 10 miles    
Events Rain    
T = Trace of Precipitation, MM = Missing Value Source: NWS Daily Summary

Daily Weather History Graph

Daily Weather History Graph

Search for Another Location

Airport or City:

Trip Planner

Search our weather history database for the weather conditions in past years. The results will help you decide how hot, cold, wet, or windy it might be!

Date:

Astronomy

Jan. 23, 2013 Rise Set
Actual Time 7:20 AM PST 4:39 PM PST
Civil Twilight 6:47 AM PST 5:12 PM PST
Nautical Twilight 6:11 AM PST 5:49 PM PST
Astronomical Twilight 5:35 AM PST 6:25 PM PST
Moon 1:51 PM PST (1/23) 4:38 AM PST (1/23)
Length of Visible Light 10h 25m
Length of Day
9h 19m
Waxing Gibbous, 90% of the Moon is Illuminated
Jan 23
Waxing Gibbous
Jan 26
Full
Feb 3
Last Quarter
Feb 9
New
Feb 17
First Quarter

Hourly Weather History & Observations

Time (PST) Temp. Windchill Dew Point Humidity Pressure Visibility Wind Dir Wind Speed Gust Speed Precip Events Conditions
12:56 AM 21.9 °F 17.2 °F 19.0 °F 89% 30.19 in 7.0 mi WNW 3.5 mph - N/A   Clear
1:56 AM 24.1 °F - 21.0 °F 88% 30.19 in 7.0 mi Calm Calm - N/A   Clear
2:56 AM 24.1 °F 18.2 °F 21.0 °F 88% 30.17 in 8.0 mi WSW 4.6 mph - N/A   Clear
3:56 AM 27.0 °F - 21.9 °F 81% 30.14 in 10.0 mi Calm Calm - N/A   Clear
4:56 AM 28.9 °F 23.9 °F 21.9 °F 75% 30.13 in 10.0 mi East 4.6 mph - N/A   Clear
5:56 AM 33.1 °F 24.9 °F 19.9 °F 59% 30.12 in 10.0 mi ESE 10.4 mph - N/A   Clear
6:56 AM 32.0 °F 26.4 °F 19.9 °F 61% 30.10 in 10.0 mi SSE 5.8 mph - N/A   Clear
7:56 AM 36.0 °F 28.0 °F 19.0 °F 50% 30.09 in 10.0 mi SSE 11.5 mph 19.6 mph N/A   Clear
8:56 AM 37.0 °F 31.0 °F 19.0 °F 48% 30.09 in 10.0 mi SSE 8.1 mph - N/A   Clear
9:56 AM 37.0 °F 33.3 °F 21.9 °F 54% 30.09 in 10.0 mi Variable 4.6 mph - N/A   Clear
10:56 AM 43.0 °F 35.7 °F 18.0 °F 37% 30.06 in 10.0 mi SE 15.0 mph 19.6 mph N/A   Clear
11:56 AM 46.0 °F 39.6 °F 19.0 °F 34% 30.02 in 10.0 mi SE 15.0 mph - N/A   Clear
12:56 PM 43.0 °F 35.4 °F 19.9 °F 40% 30.01 in 10.0 mi ESE 16.1 mph - N/A   Clear
1:56 PM 44.1 °F 41.5 °F 19.9 °F 38% 30.02 in 10.0 mi ESE 4.6 mph - N/A   Overcast
2:56 PM 43.0 °F 38.8 °F 26.1 °F 51% 30.01 in 10.0 mi East 6.9 mph - 0.00 in Rain Light Rain
3:56 PM 39.9 °F 34.5 °F 28.0 °F 63% 30.02 in 10.0 mi ESE 8.1 mph - 0.00 in   Overcast
4:56 PM 39.9 °F 37.8 °F 28.0 °F 63% 30.01 in 10.0 mi East 3.5 mph - N/A   Overcast
5:56 PM 39.9 °F 34.5 °F 28.9 °F 65% 29.99 in 10.0 mi East 8.1 mph - N/A   Overcast
6:56 PM 37.9 °F 30.5 °F 30.0 °F 73% 29.99 in 10.0 mi East 11.5 mph - N/A   Overcast
7:56 PM 41.0 °F 34.7 °F 28.9 °F 62% 30.00 in 10.0 mi East 10.4 mph - N/A   Overcast
8:56 PM 37.0 °F 31.0 °F 30.0 °F 76% 30.03 in 10.0 mi West 8.1 mph - N/A   Overcast
9:56 PM 33.1 °F 30.0 °F 27.0 °F 78% 30.08 in 10.0 mi South 3.5 mph - N/A   Overcast
10:56 PM 35.1 °F - 27.0 °F 72% 30.09 in 10.0 mi Calm Calm - N/A   Overcast
11:56 PM 34.0 °F 31.0 °F 27.0 °F 75% 30.12 in 10.0 mi WSW 3.5 mph - N/A   Overcast